Weather History for Petersburg, WV

Change the Weather History Date:

Monday, November 5, 2012

  Actual Average (KEKN) Record (KEKN)
Temperature  
Mean Temperature 36 °F 45 °F  
Max Temperature 47 °F 58 °F 76 °F (1935)
Min Temperature 26 °F 33 °F 8 °F (1991)
Degree Days  
Heating Degree Days 28 20  
Month to date heating degree days 96  
Since 1 July heating degree days 687  
Cooling Degree Days 0 0  
Month to date cooling degree days 0  
Year to date cooling degree days 475  
Moisture  
Dew Point 27 °F    
Average Humidity 73    
Maximum Humidity 92    
Minimum Humidity 45    
Precipitation  
Precipitation 0.00 in 0.11 in 1.27 in (1986)
Month to date precipitation 0.56  
Year to date precipitation 39.85  
Snow  
Snow 0.00 in - - ()
Month to date snowfall  
Since 1 September snowfall  
Snow Depth -    
Sea Level Pressure  
Sea Level Pressure 30.13 in    
Wind  
Wind Speed 2 mph (North)    
Max Wind Speed 10 mph    
Max Gust Speed 16 mph    
Visibility 9 miles    
Events      
T = Trace of Precipitation, MM = Missing Value Source: NWS Daily Summary

Daily Weather History Graph

Daily Weather History Graph

Search for Another Location

Airport:

Trip Planner

Search our weather history database for the weather conditions in past years. The results will help you decide how hot, cold, wet, or windy it might be!

Date:

Astronomy

Nov. 05, 2012 Rise Set
Actual Time 6:48 AM EST 5:11 PM EST
Civil Twilight 6:20 AM EST 5:38 PM EST
Nautical Twilight 5:49 AM EST 6:10 PM EST
Astronomical Twilight 5:17 AM EST 6:41 PM EST
Moon 10:46 PM EST (11/5) 12:07 PM EST (11/5)
Length of Visible Light 11h 18m
Length of Day
10h 22m
Waning Gibbous, 63% of the Moon is Illuminated
Nov 5
Waning Gibbous
Nov 6
Last Quarter
Nov 13
New
Nov 20
First Quarter
Nov 28
Full

Hourly Weather History & Observations

Time (EST) Temp. Windchill Dew Point Humidity Pressure Visibility Wind Dir Wind Speed Gust Speed Precip Events Conditions
12:15 AM 31.8 °F - 28.6 °F 88% 30.09 in 10.0 mi Calm Calm - N/A   Clear
12:35 AM 30.9 °F - 27.7 °F 88% 30.09 in 10.0 mi Calm Calm - N/A   Clear
12:55 AM 30.6 °F - 27.1 °F 87% 30.09 in 10.0 mi Calm Calm - N/A   Scattered Clouds
1:15 AM 30.6 °F - 27.7 °F 89% 30.09 in 7.0 mi Calm Calm - N/A   Scattered Clouds
1:35 AM 29.5 °F - 26.6 °F 89% 30.09 in 10.0 mi Calm Calm - N/A   Scattered Clouds
1:55 AM 29.7 °F - 26.8 °F 89% 30.09 in 10.0 mi Calm Calm - N/A   Mostly Cloudy
2:15 AM 30.2 °F - 27.3 °F 89% 30.09 in 10.0 mi Calm Calm - N/A   Mostly Cloudy
2:35 AM 30.2 °F - 27.3 °F 89% 30.09 in 10.0 mi Calm Calm - N/A   Scattered Clouds
2:55 AM 28.9 °F - 25.9 °F 88% 30.09 in 7.0 mi Calm Calm - N/A   Scattered Clouds
3:15 AM 28.0 °F - 25.5 °F 90% 30.09 in 10.0 mi Calm Calm - N/A   Scattered Clouds
3:35 AM 27.5 °F - 25.2 °F 91% 30.09 in 10.0 mi Calm Calm - N/A   Scattered Clouds
3:55 AM 29.1 °F - 26.4 °F 90% 30.09 in 10.0 mi Calm Calm - N/A   Scattered Clouds
4:15 AM 29.5 °F - 27.0 °F 90% 30.09 in 7.0 mi Calm Calm - N/A   Overcast
4:35 AM 29.3 °F - 27.0 °F 91% 30.10 in 7.0 mi Calm Calm - N/A   Mostly Cloudy
4:55 AM 28.8 °F - 26.4 °F 91% 30.10 in 7.0 mi Calm Calm - N/A   Scattered Clouds
5:15 AM 28.2 °F - 26.1 °F 92% 30.11 in 7.0 mi Calm Calm - N/A   Clear
5:35 AM 27.7 °F - 25.5 °F 92% 30.11 in 7.0 mi Calm Calm - N/A   Clear
5:55 AM 26.6 °F - 24.6 °F 92% 30.12 in 7.0 mi Calm Calm - N/A   Clear
6:15 AM 27.3 °F - 25.3 °F 92% 30.12 in 7.0 mi Calm Calm - N/A   Clear
6:35 AM 26.2 °F - 24.1 °F 92% 30.12 in 7.0 mi Calm Calm - N/A   Clear
6:55 AM 26.6 °F - 24.4 °F 92% 30.13 in 10.0 mi Calm Calm - N/A   Mostly Cloudy
7:15 AM 27.5 °F - 25.5 °F 92% 30.13 in 5.0 mi Calm Calm - N/A   Mostly Cloudy
7:35 AM 28.8 °F - 26.6 °F 92% 30.14 in 5.0 mi Calm Calm - N/A   Overcast
7:55 AM 30.0 °F - 27.5 °F 90% 30.14 in 5.0 mi Calm Calm - N/A   Mostly Cloudy
8:15 AM 30.0 °F - 27.5 °F 90% 30.14 in 5.0 mi Calm Calm - N/A   Scattered Clouds
8:35 AM 31.3 °F - 28.8 °F 90% 30.14 in 7.0 mi Calm Calm - N/A   Overcast
8:55 AM 32.2 °F - 29.7 °F 90% 30.14 in 7.0 mi Calm Calm - N/A   Overcast
9:15 AM 34.0 °F - 30.6 °F 87% 30.14 in 10.0 mi Calm Calm - N/A   Overcast
9:35 AM 39.0 °F - 32.7 °F 78% 30.14 in 10.0 mi Calm Calm - N/A   Mostly Cloudy
9:55 AM 41.5 °F 35.4 °F 30.7 °F 65% 30.14 in 10.0 mi NNW 10.4 mph - N/A   Mostly Cloudy
10:15 AM 44.1 °F 38.6 °F 29.3 °F 56% 30.14 in 10.0 mi NW 10.4 mph - N/A   Mostly Cloudy
10:35 AM 43.5 °F 40.1 °F 27.1 °F 53% 30.14 in 10.0 mi NNW 5.8 mph - N/A   Mostly Cloudy
10:55 AM 45.0 °F 41.2 °F 28.8 °F 53% 30.14 in 10.0 mi North 6.9 mph - N/A   Mostly Cloudy
11:15 AM 45.7 °F 40.6 °F 28.2 °F 51% 30.14 in 10.0 mi NNW 10.4 mph - N/A   Mostly Cloudy
11:35 AM 45.3 °F 42.3 °F 27.7 °F 50% 30.13 in 10.0 mi NNW 5.8 mph - N/A   Scattered Clouds
11:55 AM 45.9 °F 43.6 °F 27.3 °F 48% 30.13 in 10.0 mi NW 4.6 mph - N/A   Scattered Clouds
12:15 PM 46.8 °F - 27.5 °F 47% 30.12 in 10.0 mi NW 8.1 mph - N/A   Scattered Clouds
12:35 PM 46.6 °F - 27.7 °F 48% 30.12 in 10.0 mi NNE 4.6 mph - N/A   Clear
12:55 PM 46.2 °F 43.3 °F 27.5 °F 48% 30.11 in 10.0 mi North 5.8 mph - N/A   Clear
1:15 PM 46.6 °F - 27.3 °F 47% 30.11 in 10.0 mi NNE 5.8 mph - N/A   Clear
1:35 PM 46.4 °F 42.4 °F 26.6 °F 46% 30.10 in 10.0 mi North 8.1 mph 16.1 mph N/A   Clear
1:55 PM 46.4 °F 43.5 °F 26.6 °F 46% 30.10 in 10.0 mi NNW 5.8 mph - N/A   Clear
2:15 PM 47.5 °F - 27.5 °F 46% 30.09 in 10.0 mi NNW 6.9 mph - N/A   Clear
2:35 PM 47.5 °F - 27.0 °F 45% 30.09 in 10.0 mi North 10.4 mph - N/A   Clear
2:55 PM 47.5 °F - 27.5 °F 46% 30.09 in 10.0 mi NNW 8.1 mph - N/A   Clear
3:15 PM 47.5 °F - 27.5 °F 46% 30.09 in 10.0 mi NNW 9.2 mph - N/A   Clear
3:35 PM 46.6 °F - 27.0 °F 46% 30.09 in 10.0 mi NNW 9.2 mph - N/A   Clear
3:55 PM 46.4 °F 43.5 °F 27.3 °F 47% 30.09 in 10.0 mi NNW 5.8 mph - N/A   Clear
4:15 PM 46.0 °F 43.9 °F 28.0 °F 50% 30.10 in 10.0 mi NNE 4.6 mph - N/A   Clear
4:55 PM 43.2 °F 39.0 °F 27.3 °F 54% 30.11 in 10.0 mi NNE 6.9 mph - N/A   Clear
5:15 PM 41.9 °F 37.5 °F 27.0 °F 55% 30.11 in 10.0 mi NNE 6.9 mph - N/A   Clear
5:35 PM 40.6 °F 36.7 °F 26.8 °F 58% 30.12 in 10.0 mi NNE 5.8 mph - N/A   Clear
5:55 PM 39.2 °F 35.9 °F 26.4 °F 60% 30.13 in 10.0 mi NNE 4.6 mph - N/A   Clear
6:15 PM 39.2 °F - 26.6 °F 61% 30.14 in 10.0 mi Calm Calm - N/A   Clear
6:35 PM 39.2 °F 35.9 °F 26.2 °F 60% 30.14 in 10.0 mi North 4.6 mph - N/A   Clear
6:55 PM 39.2 °F 37.0 °F 26.2 °F 60% 30.14 in 10.0 mi NNE 3.5 mph - N/A   Clear
7:15 PM 37.2 °F - 26.4 °F 65% 30.15 in 10.0 mi Calm Calm - N/A   Clear
7:35 PM 34.5 °F - 26.8 °F 73% 30.15 in 10.0 mi Calm Calm - N/A   Clear
7:55 PM 34.5 °F - 27.3 °F 75% 30.16 in 10.0 mi Calm Calm - N/A   Clear
8:15 PM 33.6 °F - 27.5 °F 78% 30.16 in 10.0 mi Calm Calm - N/A   Clear
8:35 PM 32.0 °F - 26.6 °F 80% 30.17 in 10.0 mi Calm Calm - N/A   Clear
8:55 PM 31.6 °F - 26.2 °F 80% 30.17 in 10.0 mi Calm Calm - N/A   Clear
9:15 PM 30.6 °F - 26.2 °F 84% 30.18 in 10.0 mi Calm Calm - N/A   Clear
9:35 PM 30.2 °F - 26.2 °F 85% 30.18 in 10.0 mi Calm Calm - N/A   Clear
9:55 PM 30.7 °F - 26.2 °F 83% 30.19 in 10.0 mi Calm Calm - N/A   Clear
10:15 PM 31.3 °F - 26.4 °F 82% 30.19 in 10.0 mi Calm Calm - N/A   Clear
10:35 PM 29.8 °F - 26.2 °F 86% 30.19 in 10.0 mi Calm Calm - N/A   Clear
10:55 PM 29.7 °F - 25.9 °F 86% 30.18 in 10.0 mi Calm Calm - N/A   Clear
11:15 PM 29.5 °F - 26.1 °F 87% 30.18 in 10.0 mi Calm Calm - N/A   Clear
11:35 PM 29.3 °F - 25.7 °F 86% 30.18 in 10.0 mi Calm Calm - N/A   Clear
11:55 PM 28.2 °F - 24.6 °F 86% 30.19 in 10.0 mi Calm Calm - N/A   Clear